{"data":{"norad_id":53183,"intl_designator":"2022-083BD","name":"STARLINK-4268","alt_names":[],"object_type":"PAYLOAD","status":"ACTIVE","operator":null,"country":"US","launch_date":"2022-07-17","launch_site_code":"AFETR","launch_vehicle":null,"mission":null,"orbit_class":"UNKNOWN","rcs_meters":null,"size_class":null,"mass_kg":null,"dimensions":null,"purposes":["comms"],"wikipedia_slug":null,"has_3d_model":false,"image_url":null,"decayed_at":null,"tle_current":{"epoch":"2026-05-24T23:17:56.978304Z","epoch_age_seconds":74230,"freshness":"FRESH","line1":"1 53183U 22083BD  26144.97079836 -.00000100  00000+0  11778-4 0  9990","line2":"2 53183  53.2125 146.5941 0001156  77.1725 282.9396 15.08835658213354","mean_motion":15.08835658,"eccentricity":0.0001156,"inclination_deg":53.2125,"raan_deg":146.5941,"arg_perigee_deg":77.1725,"mean_anomaly_deg":282.9396,"bstar":1.1778e-5,"rev_number":21335,"period_min":95.437829319911,"perigee_km":538.9569522457,"apogee_km":540.55636926007,"semimajor_km":6917.8936607529,"source":"CELESTRAK","updated_at":"2026-05-25T13:38:17.326701Z"}}}